F5OZP-13 Weather Reports


Display with metric or nautical units.
time (UTC)temp
F
wind
direction
speed
MPH
gust
MPH
rain 1hr
in
rain 24hr
in
rain mn
in
humidity
%
barometer
mb
20260502130610 69 0.0 0.0 0.00 0.00 0.00 99 1018.0
20260502130110 69 0.0 0.0 0.00 0.00 0.00 99 1017.8
20260502123522 72 0.0 0.0 0.00 0.00 0.00 99 1017.5
20260502123021 73 0.0 0.0 0.00 0.00 0.00 99 1017.5
20260502122505 73 0.0 0.0 0.00 0.00 0.00 99 1017.4
20260502121957 71 0.0 0.0 0.00 0.00 0.00 99 1017.4
20260502121449 71 0.0 0.0 0.00 0.00 0.00 99 1017.5
20260502120941 71 0.0 0.0 0.00 0.00 0.00 99 1017.5
20260502120437 72 0.0 0.0 0.00 0.00 0.00 99 1017.5
20260502115421 72 0.0 0.0 0.00 0.00 0.00 99 1017.5
20260502114913 71 0.0 0.0 0.00 0.00 0.00 99 1017.7
20260502114407 73 0.0 0.0 0.00 0.00 0.00 99 1017.7
20260502113857 72 0.0 0.0 0.00 0.00 0.00 99 1017.8
20260502113349 68 0.0 0.0 0.00 0.00 0.00 99 1017.9
20260502112849 67 0.0 0.0 0.00 0.00 0.00 99 1018.0
20260502112332 68 0.0 0.0 0.00 0.00 0.00 99 1018.1
20260502111824 69 0.0 0.0 0.00 0.00 0.00 99 1018.2
20260502111316 70 0.0 0.0 0.00 0.00 0.00 99 1018.4
20260502110807 71 0.0 0.0 0.00 0.00 0.00 99 1018.3
20260502110300 72 0.0 0.0 0.00 0.00 0.00 99 1018.3
20260502105759 71 0.0 0.0 0.00 0.00 0.00 99 1018.2
20260502105243 73 0.0 0.0 0.00 0.00 0.00 99 1018.1
20260502104735 73 0.0 0.0 0.00 0.00 0.00 99 1018.1
20260502104228 73 0.0 0.0 0.00 0.00 0.00 99 1018.1
20260502103719 71 0.0 0.0 0.00 0.00 0.00 99 1018.0
20260502103211 71 0.0 0.0 0.00 0.00 0.00 99 1018.0
20260502102710 69 0.0 0.0 0.00 0.00 0.00 99 1018.0
20260502102154 69 0.0 0.0 0.00 0.00 0.00 99 1017.8
20260502101646 69 0.0 0.0 0.00 0.00 0.00 99 1017.8
20260502101138 69 0.0 0.0 0.00 0.00 0.00 99 1017.7
20260502100634 68 0.0 0.0 0.00 0.00 0.00 99 1017.7
20260502100126 67 0.0 0.0 0.00 0.00 0.00 99 1017.9
20260502091518 65 0.0 0.0 0.00 0.00 0.00 99 1017.8
20260502091010 65 0.0 0.0 0.00 0.00 0.00 99 1017.7
20260502090501 65 0.0 0.0 0.00 0.00 0.00 99 1017.7
20260502071206 60 0.0 0.0 0.00 0.00 0.00 99 1017.9
20260502070703 60 0.0 0.0 0.00 0.00 0.00 99 1017.7
20260502070155 59 0.0 0.0 0.00 0.00 0.00 99 1017.9
20260502065647 58 0.0 0.0 0.00 0.00 0.00 99 1017.9
20260502065146 58 0.0 0.0 0.00 0.00 0.00 99 1017.9
20260502064630 58 0.0 0.0 0.00 0.00 0.00 99 1017.9
20260502064122 58 0.0 0.0 0.00 0.00 0.00 99 1017.8
20260502063614 58 0.0 0.0 0.00 0.00 0.00 99 1017.9
20260502063106 58 0.0 0.0 0.00 0.00 0.00 99 1017.9
20260502062557 58 0.0 0.0 0.00 0.00 0.00 99 1018.0
20260502062057 57 0.0 0.0 0.00 0.00 0.00 99 1018.1
20260502061541 57 0.0 0.0 0.00 0.00 0.00 99 1018.0
20260502061033 57 0.0 0.0 0.00 0.00 0.00 99 1018.1
20260502060529 58 0.0 0.0 0.00 0.00 0.00 99 1018.0
20260502060021 58 0.0 0.0 0.00 0.00 0.00 99 1018.1
20260502055513 58 0.0 0.0 0.00 0.00 0.00 99 1018.1
20260502055013 57 0.0 0.0 0.00 0.00 0.00 99 1018.1
20260502054457 57 0.0 0.0 0.00 0.00 0.00 99 1018.1
20260502053948 57 0.0 0.0 0.00 0.00 0.00 99 1018.1
20260501213557 66 0.0 0.0 0.00 0.00 0.00 99 1019.4
20260501213048 66 0.0 0.0 0.00 0.00 0.00 99 1019.4
20260501212540 66 0.0 0.0 0.00 0.00 0.00 99 1019.4
20260501212040 66 0.0 0.0 0.00 0.00 0.00 99 1019.4
20260501211524 67 0.0 0.0 0.00 0.00 0.00 99 1019.4
20260501211016 67 0.0 0.0 0.00 0.00 0.00 99 1019.4
20260501210512 67 0.0 0.0 0.00 0.00 0.00 99 1019.5
20260501210004 67 0.0 0.0 0.00 0.00 0.00 99 1019.5
20260501205456 67 0.0 0.0 0.00 0.00 0.00 99 1019.5
20260501204956 67 0.0 0.0 0.00 0.00 0.00 99 1019.6
20260501204440 67 0.0 0.0 0.00 0.00 0.00 99 1019.6
20260501203932 67 0.0 0.0 0.00 0.00 0.00 99 1019.6
20260501203423 66 0.0 0.0 0.00 0.00 0.00 99 1019.6
20260501202916 67 0.0 0.0 0.00 0.00 0.00 99 1019.5
20260501202407 66 0.0 0.0 0.00 0.00 0.00 99 1019.4
20260501201912 66 0.0 0.0 0.00 0.00 0.00 99 1019.3
20260501201356 66 0.0 0.0 0.00 0.00 0.00 99 1019.2
20260501200852 66 0.0 0.0 0.00 0.00 0.00 99 1019.2
20260501200344 66 0.0 0.0 0.00 0.00 0.00 99 1019.1
20260501195836 66 0.0 0.0 0.00 0.00 0.00 99 1019.1
20260501195328 66 0.0 0.0 0.00 0.00 0.00 99 1019.2
20260501194828 66 0.0 0.0 0.00 0.00 0.00 99 1019.1
20260501194311 67 0.0 0.0 0.00 0.00 0.00 99 1019.1
20260501193803 67 0.0 0.0 0.00 0.00 0.00 99 1019.2
20260501193255 67 0.0 0.0 0.00 0.00 0.00 99 1019.1
20260501192747 67 0.0 0.0 0.00 0.00 0.00 99 1019.2
20260501192239 67 0.0 0.0 0.00 0.00 0.00 99 1019.2
20260501191739 68 0.0 0.0 0.00 0.00 0.00 99 1019.2
20260501191223 67 0.0 0.0 0.00 0.00 0.00 99 1019.2
20260501190714 67 0.0 0.0 0.00 0.00 0.00 99 1019.1
20260501190206 67 0.0 0.0 0.00 0.00 0.00 99 1019.1
20260501185658 68 0.0 0.0 0.00 0.00 0.00 99 1019.0
20260501185150 68 0.0 0.0 0.00 0.00 0.00 99 1018.9
20260501184651 68 0.0 0.0 0.00 0.00 0.00 99 1018.8
20260501184133 68 0.0 0.0 0.00 0.00 0.00 99 1018.9
20260501183625 69 0.0 0.0 0.00 0.00 0.00 99 1018.9
20260501183117 69 0.0 0.0 0.00 0.00 0.00 99 1018.9
20260501182609 70 0.0 0.0 0.00 0.00 0.00 99 1019.0
20260501182101 70 0.0 0.0 0.00 0.00 0.00 99 1019.0
20260501181600 71 0.0 0.0 0.00 0.00 0.00 99 1019.0
20260501181044 71 0.0 0.0 0.00 0.00 0.00 99 1019.0
20260501180542 72 0.0 0.0 0.00 0.00 0.00 99 1018.9
20260501180032 72 0.0 0.0 0.00 0.00 0.00 99 1018.9
20260501175524 72 0.0 0.0 0.00 0.00 0.00 99 1019.0
20260501175016 72 0.0 0.0 0.00 0.00 0.00 99 1018.9
20260501174516 72 0.0 0.0 0.00 0.00 0.00 99 1018.7
20260501173959 73 0.0 0.0 0.00 0.00 0.00 99 1018.8
20260501173451 73 0.0 0.0 0.00 0.00 0.00 99 1018.8
20260501172943 73 0.0 0.0 0.00 0.00 0.00 99 1018.9
20260501172435 73 0.0 0.0 0.00 0.00 0.00 99 1019.0
20260501171927 74 0.0 0.0 0.00 0.00 0.00 99 1018.9
20260501171427 74 0.0 0.0 0.00 0.00 0.00 99 1018.9
20260501170915 75 0.0 0.0 0.00 0.00 0.00 99 1018.9
20260501170407 76 0.0 0.0 0.00 0.00 0.00 99 1018.8
20260501165859 76 0.0 0.0 0.00 0.00 0.00 99 1018.9
20260501165351 76 0.0 0.0 0.00 0.00 0.00 99 1019.0
20260501164843 77 0.0 0.0 0.00 0.00 0.00 99 1018.9
20260501164343 79 0.0 0.0 0.00 0.00 0.00 99 1019.0
20260501163827 78 0.0 0.0 0.00 0.00 0.00 99 1018.9
20260501163319 77 0.0 0.0 0.00 0.00 0.00 99 1019.0
20260501162810 77 0.0 0.0 0.00 0.00 0.00 99 1018.9
20260501162305 77 0.0 0.0 0.00 0.00 0.00 99 1018.9
20260501161754 77 0.0 0.0 0.00 0.00 0.00 99 1018.9
20260501161254 77 0.0 0.0 0.00 0.00 0.00 99 1018.9
20260501160737 77 0.0 0.0 0.00 0.00 0.00 99 1019.1
20260501160229 79 0.0 0.0 0.00 0.00 0.00 99 1019.1
20260501155721 79 0.0 0.0 0.00 0.00 0.00 99 1019.2
20260501155213 79 0.0 0.0 0.00 0.00 0.00 99 1019.2
20260501154705 80 0.0 0.0 0.00 0.00 0.00 99 1019.3
20260501154205 77 0.0 0.0 0.00 0.00 0.00 99 1019.4
20260501153649 78 0.0 0.0 0.00 0.00 0.00 99 1019.4
20260501153141 77 0.0 0.0 0.00 0.00 0.00 99 1019.4
20260501152633 77 0.0 0.0 0.00 0.00 0.00 99 1019.5
20260501152125 80 0.0 0.0 0.00 0.00 0.00 99 1019.4
20260501151617 81 0.0 0.0 0.00 0.00 0.00 99 1019.5
20260501151116 80 0.0 0.0 0.00 0.00 0.00 99 1019.5
20260501150606 79 0.0 0.0 0.00 0.00 0.00 99 1019.5
20260501150052 80 0.0 0.0 0.00 0.00 0.00 99 1019.5
20260501145544 79 0.0 0.0 0.00 0.00 0.00 99 1019.7
20260501145035 80 0.0 0.0 0.00 0.00 0.00 99 1019.7
20260501144527 80 0.0 0.0 0.00 0.00 0.00 99 1019.7
20260501144027 81 0.0 0.0 0.00 0.00 0.00 99 1019.6
20260501143511 80 0.0 0.0 0.00 0.00 0.00 99 1019.7
20260501143003 80 0.0 0.0 0.00 0.00 0.00 99 1019.8